N299EZ CYMM-CYEG

Flight info

Callsign N299EZ
Flight time N/A
Altitude 7500
Route
Aircraft DA62

Departure

Time 2026-04-29 02:56
Airport Fort McMurray International Airport (CYMM)

Arrival

Time N/A
Airport Edmonton International Airport (CYEG)
Time Latitude Longitude Altitude Speed Heading
2026-04-29 02:43 56.65514 -111.23456 1212 ft 0 kts
2026-04-29 02:46 56.65525 -111.23444 1212 ft 6 kts 38°
2026-04-29 02:46 56.65533 -111.23529 1212 ft 12 kts 259°
2026-04-29 02:46 56.65499 -111.23651 1212 ft 11 kts 188°
2026-04-29 02:46 56.65481 -111.23535 1212 ft 13 kts 90°
2026-04-29 02:47 56.65481 -111.23337 1212 ft 18 kts 86°
2026-04-29 02:47 56.65487 -111.23101 1213 ft 20 kts 90°
2026-04-29 02:47 56.65488 -111.22835 1213 ft 22 kts 90°
2026-04-29 02:47 56.65488 -111.22550 1213 ft 23 kts 89°
2026-04-29 02:48 56.65488 -111.22260 1213 ft 23 kts 90°
2026-04-29 02:48 56.65488 -111.21968 1213 ft 23 kts 90°
2026-04-29 02:48 56.65488 -111.21673 1214 ft 23 kts 90°
2026-04-29 02:48 56.65488 -111.21375 1214 ft 24 kts 90°
2026-04-29 02:49 56.65488 -111.21078 1214 ft 24 kts 90°
2026-04-29 02:49 56.65488 -111.20795 1214 ft 21 kts 90°
2026-04-29 02:49 56.65426 -111.20625 1214 ft 8 kts 141°
2026-04-29 02:49 56.65415 -111.20607 1214 ft 0 kts 140°
2026-04-29 02:52 56.65414 -111.20606 1214 ft 1 kts 140°
2026-04-29 02:52 56.65393 -111.20574 1214 ft 7 kts 141°
2026-04-29 02:52 56.65333 -111.20518 1214 ft 11 kts 199°
2026-04-29 02:53 56.65320 -111.20627 1214 ft 11 kts 271°
2026-04-29 02:53 56.65321 -111.20729 1214 ft 0 kts 270°
2026-04-29 02:53 56.65321 -111.20730 1214 ft 0 kts 270°
2026-04-29 02:54 56.65321 -111.20796 1215 ft 24 kts 270°
2026-04-29 02:54 56.65321 -111.21370 1214 ft 63 kts 270°
2026-04-29 02:55 56.65320 -111.22322 1213 ft 85 kts 270°
2026-04-29 02:55 56.65319 -111.23479 1241 ft 95 kts 269°
2026-04-29 02:55 56.65308 -111.24661 1390 ft 91 kts 268°
2026-04-29 02:55 56.65187 -111.25788 1512 ft 93 kts 236°
2026-04-29 02:56 56.64615 -111.26248 1631 ft 96 kts 179°
2026-04-29 02:56 56.63933 -111.26151 1618 ft 111 kts 177°
2026-04-29 02:56 56.63172 -111.26033 1755 ft 108 kts 180°
2026-04-29 02:56 56.62455 -111.26328 1841 ft 107 kts 202°
2026-04-29 02:57 56.61759 -111.26815 1933 ft 107 kts 202°
2026-04-29 02:57 56.61062 -111.27310 2035 ft 108 kts 203°
2026-04-29 02:57 56.60362 -111.27808 2130 ft 110 kts 203°
2026-04-29 02:57 56.59625 -111.28344 2229 ft 120 kts 204°
2026-04-29 02:58 56.58813 -111.28947 2395 ft 130 kts 204°
2026-04-29 02:58 56.57971 -111.29580 2599 ft 135 kts 204°
2026-04-29 02:58 56.57093 -111.30248 2825 ft 138 kts 204°
2026-04-29 02:58 56.56197 -111.30899 3048 ft 140 kts 201°
2026-04-29 02:59 56.55278 -111.31501 3274 ft 141 kts 201°
2026-04-29 02:59 56.54362 -111.32143 3517 ft 141 kts 203°
2026-04-29 02:59 56.53442 -111.32807 3768 ft 141 kts 203°
2026-04-29 02:59 56.52549 -111.33452 4077 ft 137 kts 203°
2026-04-29 03:00 56.51683 -111.34079 4359 ft 135 kts 203°
2026-04-29 03:00 56.50802 -111.34715 4646 ft 134 kts 203°
2026-04-29 03:00 56.49946 -111.35331 4924 ft 134 kts 203°
2026-04-29 03:00 56.49080 -111.35954 5199 ft 134 kts 203°
2026-04-29 03:01 56.48214 -111.36578 5475 ft 134 kts 203°
2026-04-29 03:01 56.47343 -111.37206 5753 ft 135 kts 203°
2026-04-29 03:01 56.46470 -111.37835 6027 ft 135 kts 203°
2026-04-29 03:01 56.45593 -111.38468 6302 ft 136 kts 203°
2026-04-29 03:02 56.44716 -111.39101 6580 ft 136 kts 203°
2026-04-29 03:02 56.43842 -111.39730 6859 ft 137 kts 203°
2026-04-29 03:02 56.42958 -111.40367 7133 ft 137 kts 203°
2026-04-29 03:02 56.42070 -111.41009 7409 ft 137 kts 203°
2026-04-29 03:03 56.41179 -111.41653 7701 ft 138 kts 203°
2026-04-29 03:03 56.40288 -111.42296 7967 ft 138 kts 203°
2026-04-29 03:03 56.39694 -111.42724 8150 ft 139 kts 203°
2026-04-29 03:03 56.38502 -111.43584 8521 ft 139 kts 203°
2026-04-29 03:04 56.37601 -111.44235 8799 ft 140 kts 203°
2026-04-29 03:04 56.36698 -111.44887 9077 ft 140 kts 203°
2026-04-29 03:04 56.35793 -111.45541 9357 ft 140 kts 203°
2026-04-29 03:04 56.34886 -111.46197 9635 ft 141 kts 203°
2026-04-29 03:05 56.34269 -111.46643 9824 ft 141 kts 203°
2026-04-29 03:05 56.33355 -111.47302 10103 ft 142 kts 203°
2026-04-29 03:05 56.32386 -111.48007 10139 ft 159 kts 203°
2026-04-29 03:05 56.31321 -111.48787 10193 ft 170 kts 203°
2026-04-29 03:06 56.30215 -111.49596 10267 ft 177 kts 203°
2026-04-29 03:06 56.29063 -111.50441 10358 ft 180 kts 203°
2026-04-29 03:06 56.27891 -111.51302 10457 ft 183 kts 203°
2026-04-29 03:06 56.26709 -111.52170 10557 ft 184 kts 203°
2026-04-29 03:07 56.25519 -111.53044 10656 ft 185 kts 203°
2026-04-29 03:07 56.24325 -111.53921 10771 ft 186 kts 203°
2026-04-29 03:07 56.23120 -111.54779 10878 ft 186 kts 202°
2026-04-29 03:07 56.21914 -111.55620 10983 ft 187 kts 202°
2026-04-29 03:08 56.20711 -111.56516 11092 ft 187 kts 204°
2026-04-29 03:08 56.19507 -111.57407 11199 ft 187 kts 203°
2026-04-29 03:08 56.18300 -111.58281 11308 ft 188 kts 202°
2026-04-29 03:08 56.17082 -111.59134 11417 ft 188 kts 202°
2026-04-29 03:09 56.15864 -111.59984 11525 ft 188 kts 202°
2026-04-29 03:09 56.14642 -111.60836 11636 ft 188 kts 202°
2026-04-29 03:09 56.13416 -111.61691 11743 ft 189 kts 202°
2026-04-29 03:09 56.12189 -111.62546 11852 ft 189 kts 202°
2026-04-29 03:10 56.10962 -111.63402 11853 ft 195 kts 202°
2026-04-29 03:10 56.09676 -111.64273 11811 ft 200 kts 201°
2026-04-29 03:10 56.08359 -111.65150 11781 ft 203 kts 201°
2026-04-29 03:10 56.07030 -111.66066 11755 ft 205 kts 202°
2026-04-29 03:11 56.05696 -111.66999 11732 ft 206 kts 202°
2026-04-29 03:11 56.04357 -111.67943 11710 ft 207 kts 203°
2026-04-29 03:11 56.03023 -111.68917 11693 ft 207 kts 203°
2026-04-29 03:11 56.01687 -111.69900 11673 ft 208 kts 203°
2026-04-29 03:12 56.00349 -111.70884 11656 ft 208 kts 203°
2026-04-29 03:12 55.99013 -111.71868 11639 ft 208 kts 203°
2026-04-29 03:12 55.97676 -111.72852 11622 ft 208 kts 203°
2026-04-29 03:12 55.96338 -111.73837 11605 ft 208 kts 203°
2026-04-29 03:13 55.95000 -111.74821 11588 ft 208 kts 203°
2026-04-29 03:13 55.94096 -111.75486 11577 ft 208 kts 203°